Regional Weather Roundup
Issued by NWS Boston, MA

Current Version | Previous Version | Text Only | Print | Product List | Glossary Off
Versions: 1 2 3 4 5 6 7 8 9 10 11 12 13 14 15 16 17 18 19 20 21 22 23 24 25 26 27 28
000 ASUS41 KBOX 271310 RWRBOX REGIONAL WEATHER ROUNDUP NATIONAL WEATHER SERVICE TAUNTON MA 900 AM EDT MON MAR 27 2017 NOTE: "FAIR" INDICATES FEW OR NO CLOUDS BELOW 12,000 FEET WITH NO SIGNIFICANT WEATHER AND/OR OBSTRUCTIONS TO VISIBILITY. MAZALL-271400- EASTERN MASSACHUSETTS CITY SKY/WX TMP DP RH WIND PRES REMARKS BOSTON FOG 39 39 100 E13 30.19F VSB 1/2 WCI 31 BEVERLY LGT RAIN 40 39 97 SE14 30.19F FOG LAWRENCE LGT RAIN 36 36 100 E5 30.21F FOG BEDFORD LGT RAIN 39 36 89 E5 30.17F FOG BLUE HILL NOT AVBL NORWOOD FOG 40 38 93 CALM 30.18F VSB 1 MARSHFIELD CLOUDY 41 41 100 SE8 30.18F PLYMOUTH CLOUDY 42 40 92 SE6 30.18F TAUNTON CLOUDY 41 39 93 SE7 30.17F FOG NEW BEDFORD CLOUDY 42 38 85 SE10 30.17F $$ MAZALL-271400- CAPE COD AND THE ISLANDS CITY SKY/WX TMP DP RH WIND PRES REMARKS FALMOUTH CLOUDY 41 39 93 MISG 30.20F HYANNIS CLOUDY 42 39 89 SE10G18 30.16F CHATHAM CLOUDY 43 40 89 SE10 30.22F PROVINCETOWN CLOUDY 42 39 89 SE15G23 30.19F NANTUCKET CLOUDY 43 39 86 SE17 30.19F MARTHAS VNYRD CLOUDY 44 41 89 SE14G22 30.17F $$ MAZALL-271400- CENTRAL AND WESTERN MASSACHUSETTS CITY SKY/WX TMP DP RH WIND PRES REMARKS WORCESTER FOG 32 30 92 E7 30.13F VSB<1/4 WCI 26 FITCHBURG LGT RAIN 35 33 92 CALM 30.18F FOG ORANGE LGT RAIN 33 32 96 NW5 30.15F FOG WCI 29 SPRINGFIELD LGT RAIN 35 33 95 N5 30.13F FOG WCI 31 WESTFIELD RAIN 33 33 100 N7 30.14F FOG WCI 27 NORTH ADAMS LGT RAIN 36 32 85 E13G22 30.11S FOG WCI 27 PITTSFIELD RAIN 33 31 92 CALM 30.08F FOG $$ RIZALL-271400- RHODE ISLAND CITY SKY/WX TMP DP RH WIND PRES REMARKS PROVIDENCE DRZL/FOG 39 37 92 E6 30.17F VSB 1 NEWPORT CLOUDY 42 42 100 SE9G18 30.16F FOG BLOCK ISLAND FOG 43 43 100 SE13 30.14F VSB 3/4 SMITHFIELD MIX PCPN 36 35 96 E5 30.15F VSB 1/2 WESTERLY FOG 42 41 96 E10 30.16F VSB 3/4 $$ CTZALL-271400- CONNECTICUT CITY SKY/WX TMP DP RH WIND PRES REMARKS BRADLEY INTL LGT RAIN 34 34 100 N7 30.14F FOG WCI 28 HARTFORD LGT RAIN 35 34 96 N6 30.14F VSB 1 WCI 30 BRIDGEPORT LGT RAIN 40 38 93 E15 30.12F VSB 1/4 WCI 32 DANBURY LGT RAIN 37 37 100 VRB3 30.12F FOG GROTON LGT RAIN 41 40 96 E10 30.14F VSB 1/2 NEW HAVEN LGT RAIN 40 39 97 E9 30.13F VSB 3/4 CHESTER NOT AVBL MERIDEN LGT RAIN 37 34 89 N5 30.14F FOG WILLIMANTIC FOG 39 38 96 CALM 30.15F VSB 3/4 OXFORD LGT RAIN 36 30 80 E5 30.11F VSB 1/2 WCI 32 $$ MEZ002-015-021-024-NHZ003-005-008-011-012-014-VTZ005-008-271400- NORTHERN NEW ENGLAND CITY SKY/WX TMP DP RH WIND PRES REMARKS PORTLAND ME LGT RAIN 34 33 96 E8 30.27F FOG WCI 27 BANGOR ME LGT RAIN 30 27 88 SE9 30.35S WCI 22 CONCORD NH RAIN 34 32 92 N5 30.21F FOG WCI 30 MANCHESTER NH NOT AVBL NASHUA NH NOT AVBL PORTSMOUTH NH LGT RAIN 37 36 96 E9 30.21F FOG WCI 31 JAFFREY NH LGT RAIN 34 32 92 CALM 30.14F FOG KEENE NH LGT SNOW 34 30 86 CALM 30.17F FOG BURLINGTON VT LGT RAIN 36 33 89 S10 30.05F WCI 28 MT. WASHINGTON FRZ RAIN 28 28 100 SW39G51 N/A VSB 1/16WCI 11 $$ NYZ052-076-271400- EASTERN NEW YORK CITY SKY/WX TMP DP RH WIND PRES REMARKS ALBANY RAIN 37 34 89 VRB6 30.09F FOG NEW YORK CITY LGT RAIN 40 38 93 VRB6 30.12S VSB 1/4 $$ ANZALL-271400- MARINE OBSERVATIONS STATION/POSITION TIME TEMP WIND PRES VSBY WAVE AIR SEA DIR/SP/G HT/PER (UTC) (F) (DEG/KT/KT) (MB) (MI) (FT/S) BOSTON BUOY 1150 40 40 100/ 16/ 17 1022.7 3/ 5 BUZZARDS BAY 1200 40 120/ 23/ 25 1021.6F NANTUCKET SOUND 1250 39 1021.7F 2/ 4 MASS BAY-STELLWA 1204 39 39 110/ 14/ 17 1022.3F 1 7/8 ISLE OF SHOALS 1200 37 110/ 19/ 21 1023.2F S OF BLOCK IS 1255 40 N/A 4/ 6 $$ ......................KEY......................... SKY/WX - SKY CONDITION/PRESENT WEATHER TMP - TEMPERATURE IN FAHRENHEIT DWPT - DEWPOINT IN FAHRENHEIT RH - RELATIVE HUMIDITY IN PERCENT WIND - DIRECTION AND SPEED IN MPH PRES - MEAN SEA LEVEL PRESSURE IN INCHES OF HG WCI - WIND CHILL INDEX VSB - VISIBILITY IN MILES HX - HEAT INDEX TC - TEMPERATURE IN CELSIUS VRB - VARIABLE WIND DIRECTION N/A - NOT AVAILABLE

USA.gov is the U.S. government's official web portal to all federal, state and local government web resources and services.